Weather Roundup
Issued by NWS Springfield, MO

Home | Current Version | Previous Version | Text Only | Print | Product List | Glossary On
Versions: 1 2 3 4 5 6 7 8 9 10 11 12 13 14 15 16 17 18 19 20 21 22 23 24 25 26 27 28 29 30 31 32 33 34 35 36 37 38 39 40 41 42 43 44 45 46 47 48 49 50
000
NZUS99 KSGF 272057
HRRSGF

HOURLY WEATHER
NATIONAL WEATHER SERVICE SPRINGFIELD MO
400 PM CDT FRI MAY 27 2016

......SGF CWA......

CITY           SKY/WX    TMP DP  RH WIND       PRES   REMARKS
SPRINGFIELD    LGT RAIN  72  67  84 S9        29.77F
JOPLIN         CLOUDY    71  67  87 VRB3      29.75S
WEST PLAINS    CLOUDY    71  66  84 SE9       29.84R
BRANSON        CLOUDY    72  68  88 SE7       29.81R

......SURROUNDING SGF CWA......

CITY           SKY/WX    TMP DP  RH WIND       PRES   REMARKS
CHANUTE        CLOUDY    72  67  84 SE7       29.72F
PARSONS        CLOUDY    74  67  78 VRB6      29.72F
COFFEYVILLE    CLOUDY    76  68  76 SE12      29.70F
EMPORIA        CLOUDY    72  65  78 S14       29.70F
HARRISON AR    MOSUNNY   74  68  81 S8        29.80R

......KANSAS AND MISSOURI......

CITY           SKY/WX    TMP DP  RH WIND       PRES   REMARKS
KANSAS CTY INT CLOUDY    74  65  73 W5        29.74F THUNDER
DOWNTOWN KC    TSTM      70  64  83 SW23G33   29.75R
SEDALIA        MOSUNNY   82  68  62 S9        29.75F
ST JOSEPH      CLOUDY    76  63  64 S5        29.73F
ST LOUIS       CLOUDY    78  68  71 S12G21    29.82F
WICHITA        TSTM      70  63  78 W3        29.65F
TOPEKA         CLOUDY    74  66  76 SE7       29.71F
OLATHE         PTSUNNY   74  66  76 S9        29.73F

......TENNESSEE......

CITY           SKY/WX    TMP DP  RH WIND       PRES   REMARKS
MEMPHIS        NOT AVBL
NASHVILLE      PTSUNNY   86  61  42 S9        29.96F

......ARKANSAS.......

CITY           SKY/WX    TMP DP  RH WIND       PRES   REMARKS
FAYETTEVILLE   PTSUNNY   75  66  73 S12       29.77R
FT SMITH       CLOUDY    78  62  57 SE10      29.73S
LITTLE ROCK    NOT AVBL

......OKLAHOMA.......

CITY           SKY/WX    TMP DP  RH WIND       PRES   REMARKS
TULSA          CLOUDY    78  65  63 SE9       29.69F
PONCA CITY     CLOUDY    81  61  50 S20G26    29.63F
MCALESTER      CLOUDY    77  63  61 SW12      29.73R
OKLAHOMA CITY  MOSUNNY   80  63  55 S8        29.68F

......IOWA............

CITY           SKY/WX    TMP DP  RH WIND       PRES   REMARKS
DES MOINES     NOT AVBL
QUAD CITIES    CLOUDY    76  67  73 S14       29.78F

......ILLINOIS........

CITY           SKY/WX    TMP DP  RH WIND       PRES   REMARKS
QUINCY         PTSUNNY   78  68  71 S8        29.78F
CHICAGO        PTSUNNY   75  70  84 S12G23    29.83F




USA.gov is the U.S. government's official web portal to all federal, state and local government web resources and services.